COSMOS 1823 DEB, 18730

Orbit data source: Space-Track

COSMOS 1823 DEB, 18730 is space debris in LEO originally from a launch on Fri, 20 Feb 1987 UTC launched from the Plesetsk Missile And Space Complex (PKMTR). Debris objects in space refer to the collection of defunct objects orbiting the Earth. Examples of debris include non-operational satellites, rocket bodies, and fragments generated from explosions, collisions, or faulty payload assembly.

Loading next visibility...
Identifier
18730, 1987-020H
Orbit
LEO
Country
Flag of CISCIS
Related business
Manufacturer
Unknown
Mission
Spacecraft
Bus & Motor
Unknown
Mass
Unknown
Launch date (UTC)
1987-02-20 (39 years ago)
Launch vehicle
Unknown
Launch site
Plesetsk Missile And Space Complex (PKMTR)
Object type
Payload
Rocket body
Debris
Shape & HBR
Unknown shape, 0.2 m
Radar Cross Section
Medium (>0.1 m² and <1 m²)

Expand to show TLE details & history
Last TLE update: 2 days ago

TLE from 2 days ago
0 COSMOS 1823 DEB
1 18730U 87020H   26171.42662425 -.00000226  00000-0 -21098-2 0  9998
2 18730  73.9337 290.0340 0183768  53.7230  15.4042 12.13470924705038
Epoch: 2026-06-20T10:14Z
TLE epoch observation values (Epoch: 2026-06-20T10:14:20.335Z)
Latitude
64.41477°
Longitude
-95.42676°
Altitude
1,490.293 km
Speed
7.188 km/s
True Right ascension
21h 47m 11s
True Declination
64° 17' 35"
Sunlit
Object was in daylight at epoch
Visualization orbit readout
Latitude
Unknown
Longitude
Unknown
Altitude
Unknown
Speed
Unknown
Apparent Right ascension
Unknown
Apparent Declination
Unknown
Sunlit
N/A
Visualization observer readout
Local Sidereal Time
23:09:12
Azimuth
Unknown
Elevation
Unknown
Doppler factor
Unknown
Orbital elements
Apogee altitude
1,765.952 km
Perigee altitude
1,472.029 km
Semi-major axis
7,997.128 km
Eccentricity
0.01838
Inclination
73.9337°
RAAN
290.034°
Arg. of periapsis
53.723°
True anomaly
15.97621°
Mean anomaly
15.4042°
Eccentric anomaly
15.68892°
Mean motion
3.03488 °/min
Orbital period
118.62 mins
BSTAR
-0.0021098
Loading maneuver chart data...
Computing Atmospheric mass density...

Documentation

Showing up to 5 results
|